Regional Weather Roundup
Issued by NWS

Home |  Current Version |  Previous Version |  Text Only |  Print | Product List |  Glossary On
Versions: 1 2 3 4 5 6 7 8 9 10 11 12 13 14 15 16 17 18 19 20 21 22 23 24 25 26 27 28 29 30 31 32 33 34 35 36 37 38 39 40 41 42 43 44 45 46 47 48 49 50
399
ASUS43 KLMK 250102
RWRKY
KENTUCKY REGIONAL WEATHER ROUNDUP
NATIONAL WEATHER SERVICE LOUISVILLE KY
900 PM EDT MON JUN 24 2024

NOTE "FAIR" INDICATES FEW OR NO CLOUDS BELOW 12,000 FEET
WITH NO SIGNIFICANT WEATHER AND/OR OBSTRUCTIONS TO VISIBILITY.

KYZ001>023-026-027-061>063-070>075-250200-
WESTERN AND SOUTH CENTRAL KENTUCKY

CITY           SKY/WX    TMP DP  RH WIND       PRES   REMARKS
PADUCAH        CLEAR     85  68  56 SE5       29.91F
HENDERSON      CLEAR     79  71  76 CALM      29.95R
OWENSBORO      CLEAR     84  65  52 CALM      29.94S
HOPKINSVILLE   CLEAR     84  65  52 N3        29.93S
BOWLING GREEN  CLEAR     85  60  42 CALM      29.95S
GLASGOW        NOT AVBL
$$

KYZ024-025-028>034-038-045-046-053-250200-
NORTH CENTRAL KENTUCKY

CITY           SKY/WX    TMP DP  RH WIND       PRES   REMARKS
LOUISVILLE/SDF PTCLDY    85  56  37 NE7       29.94S
LOUISVILLE/LOU CLEAR     82  57  42 N5        29.94F
FORT KNOX      CLEAR     76  67  71 CALM      29.94S
$$

KYZ035>037-039>044-047>052-055>060-089>105-250200-
NORTHEAST KENTUCKY

CITY           SKY/WX    TMP DP  RH WIND       PRES   REMARKS
LEXINGTON      CLEAR     80  60  50 N3        29.97F
COVINGTON      PTCLDY    81  56  42 NW5       29.96F
FRANKFORT      CLEAR     77  63  61 CALM      29.96F
$$

KYZ054-064>069-076>088-106>120-250200-
SOUTHEAST KENTUCKY

CITY           SKY/WX    TMP DP  RH WIND       PRES   REMARKS
JACKSON        CLEAR     76  58  53 CALM      30.00S
LONDON         CLEAR     77  58  51 NE5       29.99S
SOMERSET       NOT AVBL
MIDDLESBORO    NOT AVBL
MONTICELLO     CLEAR     71  66  84 N3        30.00S
$$